EHI
10 11 11 8 5 4 2 1 0 0 0 0 0 1 2 3 4 4 3 4 4 5 4 3 2 1 0 0 0 0 0 1 2 2 1 0 1 3 4 5 4 2 1
10 10 10 7 5 4 3 1 0 1 1 0 0 0 1 3 4 4 3 4 4 4 3 3 3 2 1 0 0 0 0 1 1 1 1 1 2 3 4 4 4 2 1
9 8 6 5 4 3 3 2 1 1 1 1 1 0 1 3 4 3 3 3 3 3 3 3 3 3 2 1 0 0 0 0 1 1 1 1 3 4 4 3 3 2 2
8 6 4 3 2 2 2 1 0 1 1 1 1 1 1 2 2 2 1 1 1 1 1 2 3 3 3 2 1 0 0 1 2 2 1 1 3 5 4 3 2 1 1
9 8 5 3 2 1 1 0 0 1 1 2 2 2 1 1 1 1 0 0 0 0 0 1 2 2 2 2 1 0 1 3 4 3 1 2 4 5 5 3 2 0 0
10 9 7 5 3 1 1 1 1 1 2 2 2 2 1 0 0 0 0 0 0 0 0 0 1 1 1 1 1 0 1 4 5 4 3 4 7 7 6 4 2 0 0
10 8 6 6 5 3 3 2 1 2 3 3 2 1 1 1 1 1 0 1 0 0 0 0 0 0 0 0 0 0 1 3 4 4 5 6 9 11 9 6 3 1 0
9 7 5 6 7 6 6 4 3 4 6 6 5 4 3 3 2 1 0 0 0 0 0 0 0 0 0 0 0 1 3 4 3 2 4 7 11 14 11 6 4 3 1
6 4 4 5 6 8 9 7 6 7 9 10 9 7 5 4 4 3 1 1 1 1 0 0 0 0 0 0 2 4 6 6 3 2 3 6 12 14 9 5 3 2 2
2 2 2 3 5 8 10 9 8 8 9 11 11 9 7 7 8 6 4 3 2 1 0 0 0 0 0 2 5 7 8 7 4 3 4 7 12 12 8 4 1 1 1
2 1 0 1 3 5 7 9 10 9 9 10 10 11 11 11 11 9 7 6 4 2 1 1 1 1 2 4 6 7 6 4 3 3 5 10 14 11 6 3 1 0 0
2 1 0 1 2 2 4 7 9 8 7 8 9 11 13 11 9 8 10 9 6 4 3 3 3 3 2 3 4 5 6 4 2 1 5 11 14 11 6 4 2 1 1
2 1 1 2 3 3 3 4 4 5 6 8 8 10 10 8 6 8 10 10 9 7 7 7 7 6 5 4 3 5 6 3 1 1 5 12 14 11 8 5 4 3 3
2 1 2 4 6 7 8 6 4 3 5 8 9 9 8 7 7 9 11 11 10 9 9 10 10 11 11 8 5 4 3 2 1 1 6 12 14 13 10 7 5 6 6
3 2 3 7 10 13 14 11 5 3 5 7 8 8 8 8 9 10 11 11 10 9 9 10 12 12 12 10 6 3 2 2 2 3 6 10 13 13 12 9 7 7 7
9 6 6 10 15 16 14 9 5 5 6 6 7 8 8 9 10 11 11 10 8 8 9 11 12 10 9 7 3 2 2 3 4 4 6 7 10 12 13 12 10 8 9
19 16 12 11 15 15 10 5 4 5 6 6 7 9 10 10 10 11 11 9 8 9 11 13 13 10 6 4 3 4 5 5 5 5 5 5 7 10 13 15 15 14 13
26 23 16 11 11 10 6 4 4 5 6 6 6 10 12 11 10 10 10 9 9 10 11 13 12 9 5 3 6 9 10 9 7 5 5 5 7 8 11 15 19 18 15
33 29 20 15 12 8 4 4 4 5 6 7 7 11 13 12 10 9 8 9 7 8 9 11 12 9 5 5 8 11 11 10 6 3 3 5 7 9 9 11 15 15 13
42 37 28 22 19 12 5 4 5 5 7 9 10 11 13 13 12 10 10 9 7 7 8 10 10 8 6 5 6 7 7 7 5 2 1 2 5 7 7 7 8 9 9
50 47 39 32 28 21 11 7 7 8 9 11 11 12 14 14 13 13 12 11 10 9 8 8 8 6 5 5 4 3 3 4 5 3 1 1 1 3 4 4 6 7 6
57 57 51 44 39 31 21 14 11 11 12 12 14 17 18 17 15 15 15 13 11 9 7 8 8 6 3 3 3 2 2 4 5 3 2 2 1 1 2 3 7 11 11
59 61 60 56 51 43 32 21 15 15 14 14 17 21 22 21 19 17 16 14 10 8 6 8 10 6 2 2 3 3 2 2 3 3 3 3 4 4 3 3 7 13 16
57 60 65 66 61 52 41 28 21 18 16 16 20 24 24 22 20 18 18 18 13 7 6 8 9 7 3 2 4 3 2 1 2 3 4 4 6 7 5 2 4 9 13
54 58 67 70 67 59 46 36 29 24 21 20 21 23 23 22 19 17 19 21 16 9 7 8 9 7 5 3 4 4 3 1 2 3 3 3 5 8 8 4 3 5 7
51 57 67 71 69 62 50 41 36 30 26 24 22 22 22 21 19 16 18 22 18 12 10 10 9 9 6 5 5 6 4 2 1 2 2 2 4 9 10 7 4 3 4
Wind_Speed
10 10 11 11 11 12 13 12 10 10 10 10 10 11 11 11 11 11 11 12 12 11 11 11 10 11 10 11 10 10 9 9 9 10 10 10 9 9 8 7 7 8 11
13 12 12 12 12 12 12 11 10 10 10 10 10 10 10 10 10 10 10 11 11 11 11 10 9 10 10 10 9 9 8 8 8 9 9 9 9 8 7 7 8 8 10
14 13 12 12 12 12 12 11 10 10 10 9 10 10 10 10 9 9 10 10 10 10 10 9 9 9 9 9 8 8 7 6 6 7 7 5 7 8 8 9 11 10 10
14 12 12 13 12 11 11 11 10 10 9 9 9 9 9 9 8 9 9 10 9 9 9 9 9 9 9 8 8 7 6 5 5 5 3 4 6 10 10 10 10 9 10
13 13 13 13 12 11 11 10 10 9 9 8 9 9 9 9 9 9 10 10 9 9 9 9 9 8 8 7 6 5 4 4 4 4 2 5 6 10 10 10 9 10 9
14 14 13 13 12 11 11 10 10 9 8 8 8 9 9 9 9 9 10 9 8 8 8 8 8 8 7 6 5 4 3 3 4 3 4 6 7 10 10 10 9 9 9
13 13 13 13 12 11 10 9 9 8 8 8 8 9 9 9 8 9 9 8 7 8 8 8 7 7 6 5 4 2 2 2 3 2 5 7 8 11 11 9 9 9 9
13 13 12 12 12 10 10 9 8 7 7 7 8 8 8 8 8 8 8 7 7 7 7 7 7 6 5 4 3 2 2 3 1 3 7 8 10 10 10 9 9 8 8
13 12 11 11 10 10 9 8 8 7 7 7 8 8 8 8 8 8 8 7 6 6 7 7 6 5 5 4 3 3 3 4 3 2 7 7 10 10 10 9 8 8 8
11 10 10 10 9 8 8 9 9 8 8 8 7 7 7 7 7 8 8 7 6 6 6 6 6 5 5 4 4 3 3 4 2 3 5 8 11 10 10 8 8 7 7
9 8 8 8 8 8 9 9 9 8 8 8 7 8 6 4 5 6 7 9 7 6 6 6 6 5 5 4 4 4 2 2 1 3 5 10 10 10 9 8 7 7 6
9 8 7 7 6 6 6 7 5 5 6 5 4 4 3 3 3 5 8 9 8 7 7 7 7 6 5 3 4 4 2 1 2 4 6 11 10 9 9 7 7 6 6
9 7 7 7 6 4 4 4 3 3 4 4 4 4 3 2 3 4 4 5 5 6 4 6 5 4 3 2 2 2 1 1 2 4 7 10 9 9 8 7 6 6 5
9 8 7 7 5 4 3 3 3 2 3 3 3 3 3 2 2 2 2 3 3 2 2 3 2 2 2 2 1 1 1 2 3 4 6 10 9 9 8 7 6 6 6
9 8 8 7 6 4 2 1 3 3 3 4 3 3 2 2 2 2 2 2 2 2 3 2 2 2 2 1 1 2 1 2 4 4 5 9 9 8 8 8 7 6 6
8 9 8 7 6 4 2 1 2 3 3 4 3 3 2 2 2 2 2 1 1 1 2 2 2 2 2 2 1 1 1 2 3 4 5 6 8 8 8 8 7 6 6
8 8 7 8 7 4 3 2 2 2 4 4 3 3 3 3 3 2 2 2 1 1 2 2 2 2 2 2 2 2 1 1 2 4 5 5 5 7 8 7 7 6 6
9 8 5 6 8 5 2 1 1 2 3 3 3 3 3 3 2 1 2 2 1 1 2 2 2 2 2 1 2 2 2 2 2 3 3 4 5 5 6 8 8 7 6
9 8 6 5 7 6 4 2 1 2 3 3 3 3 3 3 2 2 2 1 1 1 1 1 2 1 1 1 2 2 2 3 3 3 3 3 4 5 6 7 8 8 8
10 8 7 6 6 5 4 2 1 2 2 2 2 3 3 2 2 1 2 2 1 1 1 2 1 1 1 1 2 2 2 2 2 2 3 3 3 5 6 7 6 6 8
11 9 8 7 6 4 3 3 2 2 2 2 2 3 3 2 2 1 1 2 1 2 2 1 1 0 0 0 0 0 1 2 2 2 2 2 2 3 4 6 5 4 4
12 11 9 7 7 6 4 3 3 3 2 2 2 3 2 2 2 2 2 1 2 2 2 1 1 0 1 0 0 0 1 0 1 3 3 3 2 2 2 4 4 5 4
12 12 10 9 8 7 6 4 3 3 1 2 3 3 2 2 1 2 2 1 1 2 2 1 1 1 0 1 0 1 1 1 0 0 1 2 2 1 1 2 2 3 4
13 12 10 10 8 7 6 5 6 5 3 3 2 3 3 2 2 2 2 2 1 1 2 1 1 0 1 1 1 1 1 1 0 0 1 1 2 2 1 1 1 2 3
13 12 11 10 9 8 7 6 5 4 3 3 3 4 3 3 2 2 3 2 2 1 2 1 1 0 1 1 1 1 0 1 1 1 1 1 1 1 1 1 1 1 3
13 12 12 11 9 8 7 7 6 5 4 4 4 3 3 2 3 3 3 2 2 1 2 2 1 1 0 1 2 2 1 1 1 1 1 2 1 2 2 2 2 2 2
Wind_Direction
109 110 108 100 93 97 105 103 99 95 92 91 89 90 97 100 101 99 100 104 106 108 110 110 110 110 110 114 112 108 109 109 107 106 107 108 109 111 110 113 114 108 114
112 111 110 105 99 98 102 101 98 96 93 91 90 92 99 103 103 104 103 106 109 113 112 112 113 115 113 112 113 114 116 117 119 122 121 118 117 114 110 104 96 112 119
112 114 113 108 104 102 102 101 100 99 95 95 94 95 100 104 105 106 108 107 110 113 113 113 113 118 117 115 117 121 124 131 140 141 142 132 122 117 110 106 109 118 121
113 116 113 113 109 106 104 102 99 97 95 96 96 98 103 106 108 113 112 109 111 111 112 113 114 119 119 119 121 128 140 154 165 172 171 144 132 126 122 118 121 123 123
113 112 116 118 114 109 106 105 103 100 98 98 97 95 101 105 106 114 114 111 116 115 114 114 118 120 123 126 128 138 161 177 198 214 148 118 116 129 127 126 126 127 128
117 116 120 122 119 115 112 110 108 106 104 101 99 100 101 105 107 110 113 114 118 122 121 122 126 127 129 131 135 152 186 203 231 212 143 124 118 130 130 131 132 131 130
116 118 125 126 124 122 119 116 114 112 110 108 107 108 110 111 110 112 114 116 119 125 127 129 130 129 129 132 144 171 210 249 247 162 119 111 121 131 132 133 132 133 134
121 122 126 132 131 131 130 126 122 121 121 121 120 118 120 121 119 118 120 120 122 125 128 133 136 137 140 148 169 212 240 272 235 123 112 112 128 133 133 133 134 137 137
124 127 135 138 139 139 139 138 135 132 132 135 135 133 132 131 130 129 129 130 131 134 137 138 142 148 158 169 185 221 254 269 295 111 113 115 130 130 134 136 139 141 141
127 132 136 141 142 146 146 145 144 145 143 144 145 148 147 145 149 148 147 149 148 146 148 151 153 161 169 174 191 215 241 283 266 131 111 123 131 132 134 137 139 142 146
126 129 133 134 144 147 151 145 154 157 157 156 161 167 167 162 158 161 148 155 160 161 163 163 166 168 169 182 202 218 232 250 124 93 101 124 132 134 136 139 141 142 147
132 132 129 136 140 142 139 139 160 157 153 162 152 159 173 158 154 145 149 164 170 175 177 179 181 179 189 185 193 207 212 225 100 105 111 128 132 136 139 141 145 148 155
136 133 129 127 125 125 118 136 140 135 136 141 141 152 148 148 154 146 154 163 177 184 187 168 182 192 183 158 157 180 191 123 98 99 120 134 138 143 144 144 150 158 164
135 128 120 109 103 93 92 116 131 127 123 129 146 146 140 151 146 135 142 148 165 162 152 143 175 154 125 115 139 132 118 97 97 100 132 141 143 148 151 151 156 165 167
134 126 115 109 99 88 72 52 116 112 113 123 126 122 127 123 125 119 127 152 157 146 144 137 145 130 127 134 143 125 125 110 120 122 130 146 146 149 152 157 161 166 169
128 125 125 126 117 115 120 87 85 114 124 118 116 119 121 107 104 111 128 121 114 131 125 144 146 136 131 145 152 139 156 130 134 129 135 145 151 152 154 158 162 166 172
136 131 132 136 130 133 139 151 124 126 121 116 116 116 116 111 116 129 141 137 126 147 142 144 144 142 156 163 158 160 149 128 127 135 148 156 154 157 161 163 165 167 173
139 133 148 144 136 135 130 123 102 103 107 117 119 114 108 110 121 128 125 121 157 171 155 152 159 152 149 169 170 166 154 159 163 159 169 158 159 163 169 173 172 172 177
140 141 148 133 140 145 143 124 93 93 102 113 116 115 122 129 129 124 117 116 202 161 133 132 112 131 146 177 175 176 174 172 176 176 164 169 165 159 163 172 178 181 186
147 149 150 147 144 147 147 139 116 104 120 117 113 123 131 135 123 121 145 142 172 100 67 55 74 104 159 207 209 165 169 174 168 155 169 173 165 171 168 166 176 189 193
155 156 157 162 155 158 160 157 154 154 150 132 134 135 143 141 130 134 110 130 93 90 76 64 60 96 208 151 70 147 189 166 169 172 174 168 169 165 170 166 169 168 180
161 162 163 165 163 166 163 161 163 158 161 153 130 128 136 137 144 144 122 150 119 113 102 102 107 82 297 86 160 160 93 13 264 186 167 178 166 171 172 158 163 169 167
168 167 170 169 166 173 168 170 165 147 168 144 139 147 149 144 135 96 120 119 126 129 130 160 134 178 259 279 123 111 132 168 176 84 192 143 156 160 151 148 148 154 156
171 170 167 163 165 170 172 179 177 175 177 171 156 147 147 150 148 132 124 118 124 116 135 183 120 275 230 267 241 183 133 105 146 137 284 147 179 181 149 142 127 135 129
168 168 164 159 164 168 175 180 181 180 172 155 152 145 157 165 170 151 133 132 134 133 132 114 105 22 299 317 315 285 189 178 237 182 196 210 214 176 166 179 173 151 143
168 166 162 159 164 168 175 181 182 178 161 155 158 157 173 170 171 167 156 150 150 142 135 143 160 178 267 358 334 322 327 304 273 253 208 213 197 198 191 185 201 176 160